カタログに戻る

SL-16 DEB

運用中LEO
NORAD 29105·DEBRIS·🇷🇺 Russia

打ち上げ Jun 10, 2004 から Baikonur Cosmodrome

Loading…

次のパス (今後24時間)

TLE

経年Source: Space-Track

元期: Sep 12, 2026, 05:11 UTC

1 29105U 04021G   26255.21658960  .00003161  00000-0  19097-2 0  9990
2 29105  70.9159  94.3029 0171278 117.9475 243.9096 14.00253790666155

AllMySatでSL-16 DEBをリアルタイム追跡

Download on the App Store